• In Hungary
  • List of Countries
  • For 7 days
  • Water Temperature
  • Satellite Maps
  • Weather Map
  • News
  • Weather Widgets
  • user-avatar
    Login

    Hourly Weather Gromoty

    Today, 20 September, Thursday

    Time Temperature Precipitation Wind Pressure Humidity
    00:00 +20°C° 0 mm 1 mps 754 mmHg 75%
    01:00 +19°C° 0 mm 1 mps 754 mmHg 74%
    02:00 +18°C° 0 mm 2 mps 754 mmHg 73%
    03:00 +18°C° 0 mm 2 mps 754 mmHg 72%
    04:00 +18°C° 0 mm 2 mps 754 mmHg 70%
    05:00 +19°C° 0 mm 2 mps 754 mmHg 70%
    06:00 +19°C° 0 mm 3 mps 754 mmHg 70%
    07:00 +20°C° 0 mm 3 mps 754 mmHg 70%
    08:00 +22°C° 0 mm 3 mps 754 mmHg 65%
    09:00 +25°C° 0 mm 3 mps 755 mmHg 60%
    10:00 +27°C° 0 mm 4 mps 755 mmHg 55%
    11:00 +28°C° 0 mm 4 mps 754 mmHg 52%
    12:00 +29°C° 0 mm 4 mps 754 mmHg 49%
    13:00 +29°C° 0 mm 4 mps 754 mmHg 46%
    14:00 +29°C° 0 mm 4 mps 754 mmHg 48%
    15:00 +29°C° 0 mm 3 mps 754 mmHg 50%
    16:00 +28°C° 0 mm 3 mps 753 mmHg 52%
    17:00 +27°C° 0 mm 2 mps 753 mmHg 57%
    18:00 +25°C° 0 mm 2 mps 753 mmHg 62%
    19:00 +23°C° 0 mm 2 mps 753 mmHg 66%
    20:00 +23°C° 0 mm 2 mps 753 mmHg 68%
    21:00 +21°C° 0 mm 2 mps 753 mmHg 70%
    22:00 +21°C° 0 mm 2 mps 753 mmHg 72%
    23:00 +20°C° 0 mm 2 mps 753 mmHg 72%

    Tomorrow, 21 September, Friday

    Time Temperature Precipitation Wind Pressure Humidity
    00:00 +20°C° 0 mm 3 mps 753 mmHg 72%
    01:00 +20°C° 0 mm 3 mps 753 mmHg 72%
    02:00 +19°C° 0 mm 3 mps 752 mmHg 73%
    03:00 +19°C° 0 mm 3 mps 752 mmHg 73%
    04:00 +19°C° 0 mm 3 mps 752 mmHg 73%
    05:00 +19°C° 0 mm 4 mps 752 mmHg 71%
    06:00 +20°C° 0 mm 4 mps 751 mmHg 68%
    07:00 +20°C° 0 mm 4 mps 751 mmHg 66%
    08:00 +22°C° 0 mm 5 mps 751 mmHg 59%
    09:00 +23°C° 0 mm 6 mps 751 mmHg 52%
    10:00 +26°C° 0 mm 7 mps 750 mmHg 45%
    11:00 +27°C° 0 mm 7 mps 750 mmHg 44%
    12:00 +28°C° 0 mm 7 mps 749 mmHg 42%
    13:00 +28°C° 0 mm 8 mps 748 mmHg 40%
    14:00 +28°C° 0 mm 7 mps 748 mmHg 42%
    15:00 +28°C° 0 mm 7 mps 747 mmHg 43%
    16:00 +27°C° 0 mm 6 mps 746 mmHg 45%
    17:00 +26°C° 0 mm 6 mps 746 mmHg 46%
    18:00 +24°C° 0 mm 6 mps 746 mmHg 48%
    19:00 +23°C° 0 mm 6 mps 746 mmHg 50%
    20:00 +21°C° 0.3 mm 7 mps 746 mmHg 57%
    21:00 +17°C° 0.3 mm 7 mps 747 mmHg 65%
    22:00 +15°C° 0.3 mm 7 mps 748 mmHg 72%
    23:00 +14°C° 0.3 mm 6 mps 749 mmHg 74%

    Day after tomorrow, 22 September, Saturday

    Time Temperature Precipitation Wind Pressure Humidity
    00:00 +13°C° 0.3 mm 5 mps 749 mmHg 75%
    01:00 +13°C° 0.3 mm 4 mps 750 mmHg 77%
    02:00 +12°C° 0 mm 4 mps 750 mmHg 77%
    03:00 +12°C° 0 mm 4 mps 750 mmHg 76%
    04:00 +12°C° 0 mm 4 mps 751 mmHg 76%
    05:00 +12°C° 0 mm 5 mps 751 mmHg 72%
    06:00 +12°C° 0 mm 5 mps 751 mmHg 69%
    07:00 +11°C° 0 mm 6 mps 751 mmHg 65%
    08:00 +13°C° 0 mm 6 mps 751 mmHg 61%
    09:00 +14°C° 0 mm 7 mps 752 mmHg 56%
    10:00 +15°C° 0 mm 7 mps 752 mmHg 52%
    11:00 +16°C° 0 mm 7 mps 752 mmHg 50%
    12:00 +16°C° 0 mm 7 mps 752 mmHg 49%
    13:00 +17°C° 0 mm 6 mps 752 mmHg 47%
    14:00 +16°C° 0.2 mm 6 mps 751 mmHg 49%
    15:00 +16°C° 0.2 mm 6 mps 751 mmHg 50%
    16:00 +16°C° 0.2 mm 5 mps 751 mmHg 52%
    17:00 +14°C° 0.2 mm 5 mps 751 mmHg 57%
    18:00 +13°C° 0.2 mm 4 mps 751 mmHg 62%
    19:00 +12°C° 0.2 mm 4 mps 751 mmHg 68%
    20:00 +12°C° 0 mm 4 mps 751 mmHg 69%
    21:00 +11°C° 0 mm 4 mps 752 mmHg 70%
    22:00 +11°C° 0 mm 4 mps 752 mmHg 71%
    23:00 +10°C° 0 mm 4 mps 752 mmHg 71%

    23 September, Sunday

    Time Temperature Precipitation Wind Pressure Humidity
    00:00 +10°C° 0 mm 4 mps 752 mmHg 71%
    01:00 +9°C° 0 mm 5 mps 752 mmHg 71%
    02:00 +9°C° 0 mm 5 mps 752 mmHg 72%
    03:00 +8°C° 0 mm 5 mps 752 mmHg 72%
    04:00 +8°C° 0 mm 5 mps 752 mmHg 73%
    05:00 +8°C° 0 mm 5 mps 752 mmHg 73%
    06:00 +8°C° 0 mm 6 mps 752 mmHg 72%
    07:00 +8°C° 0 mm 6 mps 752 mmHg 72%
    08:00 +10°C° 0 mm 6 mps 752 mmHg 67%
    09:00 +11°C° 0 mm 6 mps 752 mmHg 62%
    10:00 +13°C° 0 mm 6 mps 752 mmHg 57%
    11:00 +14°C° 0 mm 6 mps 752 mmHg 53%
    12:00 +15°C° 0 mm 6 mps 752 mmHg 49%
    13:00 +16°C° 0 mm 6 mps 751 mmHg 44%
    14:00 +16°C° 0 mm 5 mps 751 mmHg 45%
    15:00 +15°C° 0 mm 4 mps 750 mmHg 46%
    16:00 +15°C° 0 mm 4 mps 750 mmHg 46%
    17:00 +14°C° 0 mm 3 mps 749 mmHg 49%
    18:00 +13°C° 0 mm 3 mps 748 mmHg 52%
    19:00 +12°C° 0 mm 3 mps 748 mmHg 54%
    20:00 +12°C° 0.6 mm 4 mps 746 mmHg 62%
    21:00 +11°C° 0.6 mm 4 mps 745 mmHg 69%
    22:00 +10°C° 0.6 mm 5 mps 744 mmHg 77%
    23:00 +10°C° 2.8 mm 6 mps 742 mmHg 81%

    24 September, Monday

    Time Temperature Precipitation Wind Pressure Humidity
    00:00 +10°C° 2.8 mm 7 mps 740 mmHg 86%
    01:00 +10°C° 2.8 mm 8 mps 739 mmHg 90%
    02:00 +10°C° 2.9 mm 8 mps 737 mmHg 91%
    03:00 +11°C° 2.9 mm 8 mps 735 mmHg 92%
    04:00 +11°C° 2.9 mm 8 mps 733 mmHg 92%
    05:00 +12°C° 1.7 mm 7 mps 732 mmHg 88%
    06:00 +14°C° 1.7 mm 7 mps 731 mmHg 85%
    07:00 +14°C° 1.7 mm 7 mps 730 mmHg 81%
    08:00 +14°C° 0 mm 7 mps 730 mmHg 80%
    09:00 +12°C° 0 mm 7 mps 730 mmHg 80%
    10:00 +12°C° 0 mm 7 mps 729 mmHg 79%
    11:00 +12°C° 0.1 mm 7 mps 729 mmHg 78%
    12:00 +14°C° 0.1 mm 6 mps 729 mmHg 77%
    13:00 +14°C° 0.1 mm 6 mps 730 mmHg 76%
    14:00 +12°C° 0.5 mm 8 mps 731 mmHg 77%
    15:00 +11°C° 0.5 mm 10 mps 732 mmHg 78%
    16:00 +9°C° 0.5 mm 13 mps 734 mmHg 79%
    17:00 +9°C° 0.4 mm 13 mps 735 mmHg 78%
    18:00 +9°C° 0.4 mm 13 mps 737 mmHg 78%
    19:00 +9°C° 0.4 mm 13 mps 739 mmHg 77%
    20:00 +8°C° 0.4 mm 12 mps 741 mmHg 76%
    21:00 +8°C° 0.4 mm 12 mps 743 mmHg 76%
    22:00 +8°C° 0.4 mm 11 mps 744 mmHg 75%
    23:00 +8°C° 0.2 mm 10 mps 745 mmHg 74%

    25 September, Tuesday

    Time Temperature Precipitation Wind Pressure Humidity
    00:00 +7°C° 0.2 mm 9 mps 746 mmHg 73%
    01:00 +7°C° 0.2 mm 8 mps 747 mmHg 72%
    02:00 +6°C° 0 mm 8 mps 748 mmHg 71%
    03:00 +6°C° 0 mm 7 mps 749 mmHg 71%
    04:00 +6°C° 0 mm 7 mps 749 mmHg 71%
    05:00 +6°C° 0 mm 7 mps 750 mmHg 69%
    06:00 +6°C° 0 mm 7 mps 751 mmHg 68%
    07:00 +6°C° 0 mm 7 mps 751 mmHg 67%
    08:00 +7°C° 0.2 mm 8 mps 752 mmHg 62%
    09:00 +9°C° 0.2 mm 8 mps 753 mmHg 58%
    10:00 +10°C° 0.2 mm 9 mps 753 mmHg 53%
    11:00 +10°C° 0.2 mm 9 mps 754 mmHg 51%
    12:00 +10°C° 0.2 mm 9 mps 755 mmHg 50%
    13:00 +10°C° 0.2 mm 9 mps 755 mmHg 48%
    14:00 +10°C° 0.1 mm 9 mps 755 mmHg 48%
    15:00 +10°C° 0.1 mm 8 mps 756 mmHg 48%
    16:00 +9°C° 0.1 mm 8 mps 756 mmHg 49%
    17:00 +8°C° 0 mm 6 mps 757 mmHg 52%
    18:00 +7°C° 0 mm 5 mps 757 mmHg 55%
    19:00 +6°C° 0 mm 4 mps 758 mmHg 58%
    20:00 +6°C° 0 mm 4 mps 758 mmHg 60%
    21:00 +6°C° 0 mm 4 mps 758 mmHg 61%
    22:00 +5°C° 0 mm 4 mps 758 mmHg 63%
    23:00 +5°C° 0 mm 3 mps 759 mmHg 67%
    Show more